Location: Newark
(21.1200°N, 73.4000°E)
Time: 06:21:03
(UTC+00:00)

Altair - All Passes

Search period start: 29 January 2020 00:00
Search period end: 08 February 2020 00:00
Orbit: 1502 x 1682 km, 47.2° (Epoch: 28 January)

Date Brightness Start Highest point End Pass type
(mag) Time Alt. Az. Time Alt. Az. Time Alt. Az.
29 Jan - 00:04:26 10° SSW 00:13:40 51° SE 00:23:12 10° ENE visible
29 Jan - 02:09:14 10° WSW 02:18:31 45° NW 02:28:05 10° NNE daylight
29 Jan - 04:19:56 10° NW 04:25:56 17° NNW 04:32:00 10° NNE daylight
29 Jan - 06:29:54 10° NNW 06:35:22 15° NNE 06:40:47 10° NE daylight
29 Jan - 08:34:01 10° NNW 08:43:13 38° NE 08:52:09 10° E daylight
29 Jan - 10:38:33 10° NW 10:48:23 63° SW 10:57:52 10° SSE daylight
29 Jan - 23:39:31 10° SSW 23:48:32 45° SE 23:57:50 10° ENE visible
30 Jan - 01:43:51 10° WSW 01:53:14 49° NW 02:02:56 10° NE daylight
30 Jan - 03:54:10 10° WNW 04:00:27 18° NNW 04:06:48 10° NNE daylight
30 Jan - 06:04:37 10° NNW 06:09:50 15° N 06:15:01 10° NE daylight
30 Jan - 08:08:53 10° NNW 08:17:53 35° NE 08:26:40 10° E daylight
30 Jan - 10:13:15 10° NW 10:23:13 70° SW 10:32:50 10° SSE daylight
30 Jan - 12:23:35 10° WSW 12:27:04 12° WSW 12:30:32 10° SW daylight
30 Jan - 23:14:38 10° SSW 23:23:24 41° SE 23:32:26 10° ENE visible
31 Jan - 01:18:31 10° WSW 01:27:58 54° NW 01:37:48 10° NE visible
31 Jan - 03:28:25 10° WNW 03:34:58 19° NNW 03:41:37 10° NNE daylight
31 Jan - 05:39:18 10° NNW 05:44:18 14° N 05:49:17 10° NE daylight
31 Jan - 07:43:45 10° NNW 07:52:33 32° NNE 08:01:08 10° E daylight
31 Jan - 09:47:59 10° NW 09:58:04 77° SW 10:07:45 10° SE daylight
31 Jan - 11:57:06 10° W 12:01:57 15° WSW 12:06:45 10° SSW daylight
31 Jan - 22:49:49 10° S 22:58:17 36° SE 23:07:00 10° ENE visible
01 Feb - 00:53:12 10° WSW 01:02:44 59° NW 01:12:38 10° NE visible
01 Feb - 03:02:41 10° WNW 03:09:30 20° NNW 03:16:27 10° NNE daylight
01 Feb - 05:13:56 10° NNW 05:18:45 14° N 05:23:34 10° NE daylight
01 Feb - 07:18:37 10° NNW 07:27:11 30° NNE 07:35:35 10° E daylight
01 Feb - 09:22:44 10° NW 09:32:52 84° SW 09:42:39 10° SE daylight
01 Feb - 11:31:00 10° W 11:36:50 17° SW 11:42:36 10° SSW daylight
01 Feb - 22:25:02 10° S 22:33:10 32° SE 22:41:30 10° ENE visible
02 Feb - 00:27:55 10° WSW 00:37:29 64° NW 00:47:27 10° NE visible
02 Feb - 02:36:59 10° WNW 02:44:04 21° NNW 02:51:17 10° NNE daylight
02 Feb - 04:48:32 10° NNW 04:53:12 14° N 04:57:53 10° NNE daylight
02 Feb - 06:53:29 10° NNW 07:01:49 28° NNE 07:10:00 10° E daylight
02 Feb - 08:57:30 10° NW 09:07:41 89° NE 09:17:31 10° SE daylight
02 Feb - 11:05:06 10° W 11:11:43 20° SW 11:18:14 10° SSW daylight
02 Feb - 22:00:20 10° S 22:08:03 28° SE 22:15:58 10° ENE visible
03 Feb - 00:02:40 10° SW 00:12:16 70° NW 00:22:16 10° NE visible
03 Feb - 02:11:18 10° WNW 02:18:37 23° NNW 02:26:08 10° NNE daylight
03 Feb - 04:23:04 10° NNW 04:27:39 14° N 04:32:14 10° NNE daylight
03 Feb - 06:28:21 10° NNW 06:36:26 26° NNE 06:44:22 10° E daylight
03 Feb - 08:32:17 10° NW 08:42:29 82° NE 08:52:20 10° SE daylight
03 Feb - 10:39:21 10° WNW 10:46:36 23° SW 10:53:44 10° S daylight
03 Feb - 21:35:41 10° S 21:42:56 25° SE 21:50:22 10° ENE visible
03 Feb - 23:37:27 10° SW 23:47:03 77° NW 23:57:04 10° NE visible
04 Feb - 01:45:39 10° WNW 01:53:13 24° NNW 02:00:59 10° NNE daylight
04 Feb - 03:57:33 10° NNW 04:02:06 14° N 04:06:39 10° NNE daylight
04 Feb - 06:03:13 10° NNW 06:11:01 24° NNE 06:18:43 10° ENE daylight
04 Feb - 08:07:05 10° NW 08:17:16 75° NE 08:27:08 10° SE daylight
04 Feb - 10:13:40 10° WNW 10:21:29 26° SW 10:29:08 10° S daylight
04 Feb - 21:11:08 10° S 21:17:50 22° SE 21:24:40 10° E visible
04 Feb - 23:12:16 10° SW 23:21:51 83° NW 23:31:52 10° NE visible
05 Feb - 01:20:02 10° W 01:27:50 26° NNW 01:35:51 10° NNE visible
05 Feb - 03:31:59 10° NNW 03:36:33 14° N 03:41:07 10° NNE daylight
05 Feb - 05:38:05 10° NNW 05:45:36 23° NNE 05:53:02 10° ENE daylight
05 Feb - 07:41:54 10° NW 07:52:02 69° NE 08:01:54 10° SE daylight
05 Feb - 09:48:05 10° WNW 09:56:22 30° SW 10:04:27 10° S daylight
05 Feb - 20:46:42 10° SSE 20:52:44 19° SE 20:58:52 10° E visible
05 Feb - 22:47:07 10° SW 22:56:41 89° SE 23:06:39 10° NE visible
06 Feb - 00:54:26 10° W 01:02:27 28° NNW 01:10:42 10° NNE visible
06 Feb - 03:06:23 10° NNW 03:11:00 14° N 03:15:38 10° NNE daylight
06 Feb - 05:12:56 10° NNW 05:20:10 21° NNE 05:27:19 10° ENE daylight
06 Feb - 07:16:45 10° NW 07:26:48 63° NE 07:36:37 10° ESE daylight
06 Feb - 09:22:34 10° WNW 09:31:14 34° SW 09:39:42 10° S daylight
06 Feb - 20:22:25 10° SSE 20:27:38 16° SE 20:32:54 10° E visible
06 Feb - 22:22:00 10° SW 22:31:30 82° SE 22:41:25 10° NE visible
07 Feb - 00:28:53 10° W 00:37:06 30° NNW 00:45:34 10° NNE visible
07 Feb - 02:40:44 10° NW 02:45:27 14° N 02:50:13 10° NNE daylight
07 Feb - 04:47:48 10° NNW 04:54:42 20° NNE 05:01:35 10° ENE daylight
07 Feb - 06:51:35 10° NW 07:01:33 58° NE 07:11:19 10° ESE daylight
07 Feb - 08:57:06 10° WNW 09:06:06 38° SW 09:14:54 10° S daylight
07 Feb - 19:58:24 10° SSE 20:02:31 14° ESE 20:06:41 10° E night (unlit)
07 Feb - 21:56:55 10° SW 22:06:20 75° SE 22:16:11 10° NE visible
